Location: Heilbronn
(49.1548°N, 9.2780°E)
Time: 02:01:00
(UTC+01:00)

ISS - Pass Details

Date: 06 January 2018
Orbit: 401 x 406 km, 51.6° (Epoch: 17 January)

Event Time Altitude Azimuth Distance (km) Brightness Sun altitude
Exits shadow 05:15:43 16° 69° (ENE) 1,171 -0.8 -28.6°
Drops below altitude 10° 05:16:27 10° 70° (ENE) 1,468 -0.2 -28.5°
Sets 05:18:33 0° 73° (ENE) 2,331 1.1 -28.1°
